| time (UTC) | temp F | wind direction | speed knots | gust knots | rain 1hr in | rain 24hr in | rain mn in | humidity % | barometer mb |
| 20260506014542 | 78 | 151 | 9.6 | 12.2 | 0.00 | 0.00 | 0.00 | 88 | 1009.6 |
| 20260506013054 | 78 | 135 | 7.0 | 12.2 | 0.00 | 0.00 | 0.00 | 88 | 1009.3 |
| 20260506011604 | 78 | 129 | 6.1 | 8.7 | 0.00 | 0.00 | 0.00 | 87 | 1009.2 |
| 20260506010058 | 78 | 139 | 8.7 | 12.2 | 0.00 | 0.00 | 0.00 | 87 | 1008.9 |
| 20260506004508 | 79 | 142 | 9.6 | 13.0 | 0.00 | 0.00 | 0.00 | 86 | 1008.7 |
| 20260506003009 | 79 | 139 | 7.8 | 11.3 | 0.00 | 0.00 | 0.00 | 86 | 1008.6 |
| 20260506001513 | 79 | 148 | 7.8 | 16.5 | 0.00 | 0.00 | 0.00 | 85 | 1008.6 |
| 20260506000017 | 80 | 160 | 8.7 | 17.4 | 0.00 | 0.00 | 0.00 | 85 | 1008.7 |
| 20260505234522 | 80 | 160 | 7.0 | 13.9 | 0.00 | 0.00 | 0.00 | 85 | 1008.6 |
| 20260505233025 | 80 | 153 | 6.1 | 13.0 | 0.00 | 0.00 | 0.00 | 85 | 1008.5 |
| 20260505231533 | 80 | 155 | 7.8 | 13.0 | 0.00 | 0.00 | 0.00 | 85 | 1008.6 |
| 20260505230037 | 80 | 138 | 6.1 | 13.9 | 0.00 | 0.00 | 0.00 | 85 | 1008.7 |
| 20260505224540 | 81 | 154 | 7.0 | 13.0 | 0.00 | 0.00 | 0.00 | 84 | 1008.8 |
| 20260505223050 | 81 | 194 | 8.7 | 13.9 | 0.00 | 0.00 | 0.00 | 84 | 1008.8 |
| 20260505221557 | 81 | 148 | 7.8 | 13.9 | 0.00 | 0.00 | 0.00 | 84 | 1008.9 |
| 20260505220057 | 82 | 180 | 6.1 | 13.9 | 0.00 | 0.00 | 0.00 | 84 | 1009.0 |
| 20260505214621 | 82 | 179 | 6.1 | 13.0 | 0.00 | 0.00 | 0.00 | 84 | 1009.1 |
| 20260505214501 | 82 | 105 | 5.2 | 13.0 | 0.00 | 0.00 | 0.00 | 84 | 1009.1 |
| 20260505213008 | 81 | 184 | 3.5 | 12.2 | 0.00 | 0.00 | 0.00 | 84 | 1009.4 |
| 20260505211509 | 81 | 192 | 5.2 | 15.6 | 0.00 | 0.00 | 0.00 | 84 | 1009.6 |
| 20260505210013 | 81 | 132 | 5.2 | 11.3 | 0.00 | 0.00 | 0.00 | 84 | 1009.9 |
| 20260505204525 | 81 | 165 | 3.5 | 9.6 | 0.00 | 0.00 | 0.00 | 84 | 1009.9 |
| 20260505203023 | 81 | 273 | 3.5 | 16.5 | 0.00 | 0.00 | 0.00 | 84 | 1010.2 |
| 20260505201525 | 82 | 259 | 6.1 | 13.9 | 0.00 | 0.00 | 0.00 | 85 | 1010.3 |
| 20260505200030 | 81 | 137 | 4.3 | 13.9 | 0.00 | 0.00 | 0.00 | 84 | 1010.3 |
| 20260505194531 | 82 | 252 | 0.9 | 13.9 | 0.00 | 0.00 | 0.00 | 86 | 1010.4 |
| 20260505193039 | 81 | 204 | 3.5 | 7.8 | 0.00 | 0.00 | 0.00 | 86 | 1010.6 |
| 20260505191546 | 81 | 252 | 5.2 | 10.4 | 0.00 | 0.00 | 0.00 | 86 | 1010.6 |
| 20260505190052 | 81 | 250 | 1.7 | 11.3 | 0.00 | 0.00 | 0.00 | 87 | 1010.7 |
| 20260505184601 | 81 | 233 | 2.6 | 9.6 | 0.00 | 0.00 | 0.00 | 87 | 1010.6 |
| 20260505183009 | 80 | 229 | 3.5 | 7.8 | 0.00 | 0.00 | 0.00 | 87 | 1011.0 |
| 20260505181510 | 80 | 143 | 5.2 | 11.3 | 0.00 | 0.00 | 0.00 | 87 | 1011.1 |
| 20260505180014 | 80 | 225 | 1.7 | 8.7 | 0.00 | 0.00 | 0.00 | 88 | 1011.1 |
| 20260505174520 | 80 | 184 | 4.3 | 11.3 | 0.00 | 0.00 | 0.00 | 88 | 1011.1 |
| 20260505173027 | 79 | 184 | 5.2 | 10.4 | 0.00 | 0.00 | 0.00 | 88 | 1011.2 |
| 20260505171533 | 79 | 211 | 3.5 | 8.7 | 0.00 | 0.00 | 0.00 | 88 | 1011.4 |
| 20260505170037 | 79 | 222 | 4.3 | 10.4 | 0.00 | 0.00 | 0.00 | 88 | 1011.4 |
| 20260505164548 | 79 | 221 | 5.2 | 10.4 | 0.00 | 0.00 | 0.00 | 88 | 1011.3 |
| 20260505163048 | 79 | 240 | 3.5 | 12.2 | 0.00 | 0.00 | 0.00 | 89 | 1011.3 |
| 20260505161603 | 78 | 227 | 3.5 | 9.6 | 0.00 | 0.00 | 0.00 | 89 | 1011.4 |
| 20260505153004 | 77 | 114 | 4.3 | 9.6 | 0.00 | 0.00 | 0.00 | 89 | 1011.1 |
| 20260505151506 | 77 | 132 | 1.7 | 12.2 | 0.00 | 0.00 | 0.00 | 90 | 1011.1 |
| 20260505124524 | 73 | 158 | 6.1 | 8.7 | 0.00 | 0.00 | 0.00 | 91 | 1010.8 |
| 20260505123009 | 72 | 134 | 5.2 | 7.8 | 0.00 | 0.00 | 0.00 | 91 | 1010.6 |
| 20260505121516 | 72 | 132 | 6.1 | 9.6 | 0.00 | 0.00 | 0.00 | 91 | 1010.3 |
| 20260505120028 | 72 | 135 | 6.1 | 9.6 | 0.00 | 0.00 | 0.00 | 90 | 1010.4 |
| 20260505114520 | 72 | 166 | 5.2 | 9.6 | 0.00 | 0.00 | 0.00 | 90 | 1010.4 |
| 20260505113024 | 72 | 135 | 5.2 | 8.7 | 0.00 | 0.00 | 0.00 | 90 | 1010.3 |
| 20260505111530 | 72 | 141 | 5.2 | 7.0 | 0.00 | 0.00 | 0.00 | 90 | 1010.3 |
| 20260505101553 | 72 | 222 | 1.7 | 5.2 | 0.00 | 0.00 | 0.00 | 89 | 1010.4 |
| 20260505100050 | 71 | 194 | 1.7 | 5.2 | 0.00 | 0.00 | 0.00 | 89 | 1010.6 |
| 20260505094559 | 71 | 148 | 3.5 | 6.1 | 0.00 | 0.00 | 0.00 | 89 | 1010.4 |
| 20260505093102 | 71 | 161 | 1.7 | 5.2 | 0.00 | 0.00 | 0.00 | 89 | 1010.6 |
| 20260505093002 | 71 | 158 | 2.6 | 5.2 | 0.00 | 0.00 | 0.00 | 89 | 1010.6 |
| 20260505091503 | 71 | 169 | 0.9 | 7.0 | 0.00 | 0.00 | 0.00 | 89 | 1010.8 |
| 20260505090017 | 71 | 161 | 1.7 | 6.1 | 0.00 | 0.00 | 0.00 | 89 | 1010.8 |
| 20260505084517 | 71 | 161 | 0.9 | 6.1 | 0.00 | 0.00 | 0.00 | 89 | 1010.8 |
| 20260505083022 | 71 | 136 | 5.2 | 8.7 | 0.00 | 0.00 | 0.00 | 90 | 1010.7 |
| 20260505081521 | 70 | 132 | 5.2 | 7.8 | 0.00 | 0.00 | 0.00 | 90 | 1010.8 |
| 20260505080024 | 70 | 132 | 5.2 | 7.8 | 0.00 | 0.00 | 0.00 | 89 | 1010.7 |
| 20260505074528 | 70 | 140 | 4.3 | 7.8 | 0.00 | 0.00 | 0.00 | 89 | 1011.1 |
| 20260505073025 | 69 | 132 | 5.2 | 9.6 | 0.00 | 0.00 | 0.00 | 89 | 1011.2 |
| 20260505071534 | 69 | 132 | 5.2 | 7.0 | 0.00 | 0.00 | 0.00 | 89 | 1011.3 |
| 20260505070031 | 69 | 125 | 5.2 | 8.7 | 0.00 | 0.00 | 0.00 | 89 | 1011.6 |
| 20260505064539 | 69 | 121 | 6.1 | 7.8 | 0.00 | 0.00 | 0.00 | 88 | 1011.7 |
| 20260505063049 | 69 | 131 | 5.2 | 7.8 | 0.00 | 0.00 | 0.00 | 88 | 1011.9 |
| 20260505061555 | 69 | 176 | 1.7 | 7.8 | 0.00 | 0.00 | 0.00 | 87 | 1012.4 |
| 20260505060054 | 69 | 138 | 4.3 | 7.0 | 0.00 | 0.00 | 0.00 | 88 | 1012.1 |
| 20260505054503 | 68 | 130 | 5.2 | 7.0 | 0.00 | 0.00 | 0.00 | 87 | 1012.3 |
| 20260505053006 | 68 | 114 | 5.2 | 7.8 | 0.00 | 0.00 | 0.00 | 87 | 1012.4 |
| 20260505051517 | 68 | 134 | 6.1 | 7.8 | 0.00 | 0.00 | 0.00 | 87 | 1012.6 |
| 20260505041506 | 69 | 121 | 5.2 | 7.8 | 0.00 | 0.00 | 0.00 | 85 | 1012.8 |
| 20260505040008 | 69 | 122 | 5.2 | 7.0 | 0.00 | 0.00 | 0.00 | 85 | 1012.8 |
| 20260505034512 | 70 | 126 | 5.2 | 7.0 | 0.00 | 0.00 | 0.00 | 84 | 1013.1 |
| 20260505033050 | 70 | 128 | 5.2 | 7.8 | 0.00 | 0.00 | 0.00 | 84 | 1013.0 |
| 20260505031558 | 71 | 130 | 5.2 | 7.8 | 0.00 | 0.00 | 0.00 | 83 | 1013.3 |
| 20260505030056 | 71 | 135 | 6.1 | 8.7 | 0.00 | 0.00 | 0.00 | 83 | 1013.0 |
| 20260505024606 | 72 | 134 | 6.1 | 8.7 | 0.00 | 0.00 | 0.00 | 82 | 1013.1 |
| 20260505023011 | 73 | 163 | 7.0 | 10.4 | 0.00 | 0.00 | 0.00 | 82 | 1013.0 |
| 20260505021513 | 73 | 146 | 6.1 | 12.2 | 0.00 | 0.00 | 0.00 | 81 | 1012.9 |
| 20260505020014 | 73 | 132 | 7.8 | 13.0 | 0.00 | 0.00 | 0.00 | 81 | 1012.8 |